Wind_Speed
36 29 30 27 32 30 27 35 44 49 49 42 43 43 47 45 46 46 46 44 41 41 39 40 41 42 40 41 40 39 40 42 42 40 39 40 41 41 41 40 38 36 36
36 28 28 41 36 33 32 36 40 44 48 45 45 47 46 45 42 42 41 41 39 39 39 40 40 41 43 43 42 43 42 43 45 45 44 42 43 44 45 44 41 39 37
41 30 35 36 35 38 36 40 45 47 46 47 48 46 44 39 39 39 42 41 44 42 41 43 43 44 47 48 48 47 48 48 48 49 49 48 47 47 48 48 49 46 43
42 39 36 36 40 43 44 43 42 43 45 44 42 41 41 42 44 44 46 46 49 48 47 47 50 49 53 55 56 56 56 55 55 55 54 53 53 53 52 52 51 52 51
43 43 43 43 43 41 41 39 41 41 40 40 41 42 43 45 47 49 52 53 55 55 56 57 58 59 59 61 62 62 64 65 65 64 63 61 60 60 58 57 55 55 54
40 39 40 40 40 42 42 43 42 43 43 44 45 47 48 48 50 53 57 58 59 62 65 67 68 69 69 71 70 69 71 71 70 71 71 72 71 70 67 65 63 61 59
38 40 44 44 41 42 45 47 47 47 48 50 51 52 52 54 55 59 61 63 67 69 71 73 75 77 79 79 80 81 79 79 81 81 81 79 78 77 78 75 73 71 67
41 44 45 47 50 51 53 53 53 53 54 55 57 58 59 58 60 63 66 69 73 77 80 81 82 83 85 87 87 88 88 87 87 89 91 91 89 87 84 84 82 79 77
44 47 49 51 53 55 55 56 57 57 59 59 61 62 64 65 67 70 74 78 80 83 86 88 90 92 92 93 94 95 95 96 97 97 96 97 98 98 96 93 90 89 87
47 49 52 54 55 56 58 59 60 60 62 63 64 68 72 76 79 79 83 87 89 91 92 93 94 95 96 97 100 100 99 100 100 99 101 102 104 104 103 102 99 98 95
51 51 52 54 56 58 60 61 61 62 65 67 71 75 79 84 88 92 93 94 94 96 97 96 91 85 81 80 80 82 85 86 88 93 97 101 106 108 108 108 108 106 103
55 57 59 60 62 64 64 65 66 67 72 76 80 83 88 92 95 98 98 97 97 93 84 78 72 66 64 63 63 63 66 70 72 74 80 84 93 102 107 111 112 111 110
58 59 61 63 64 65 66 68 70 73 77 82 86 88 91 93 96 96 97 93 84 74 69 60 55 52 52 53 53 53 52 53 53 55 58 63 70 78 89 102 109 114 116
59 60 61 63 64 65 67 71 75 79 83 87 89 90 91 92 94 91 83 78 71 63 54 50 46 49 49 51 51 54 55 52 51 51 49 49 52 59 66 78 88 103 114
60 61 62 64 65 67 70 74 79 84 87 88 89 88 89 90 86 79 73 65 58 52 45 45 46 48 49 51 53 55 53 51 50 50 49 49 51 55 54 54 66 79 90
61 62 63 65 66 70 74 79 83 85 86 88 86 89 88 82 77 70 59 50 47 49 50 50 48 49 50 51 51 51 50 50 50 50 51 51 51 53 54 51 50 55 69
63 64 65 67 70 74 79 83 84 85 86 85 88 88 80 74 68 56 47 43 45 49 52 51 51 49 48 47 47 49 48 47 47 46 47 50 52 51 51 51 51 50 51
65 67 67 70 74 77 81 82 83 86 85 88 86 79 71 65 57 44 41 42 45 48 54 54 49 45 45 46 45 46 45 44 44 43 43 44 49 51 53 54 51 48 50
66 68 71 74 78 78 81 83 83 84 86 85 78 70 65 55 42 39 41 42 46 52 53 50 48 45 45 43 42 41 40 39 39 40 41 41 43 45 46 48 51 52 50
68 74 76 78 80 82 82 81 83 85 83 76 69 63 53 42 37 38 39 44 49 48 47 47 44 42 39 40 38 36 36 38 40 42 43 44 44 44 45 44 44 48 50
72 77 78 79 82 82 83 81 84 83 78 68 62 53 42 36 35 36 42 47 46 46 45 44 42 39 38 34 33 34 36 40 39 42 44 42 41 41 41 43 43 43 46
76 80 80 82 82 83 83 84 83 76 68 62 53 43 36 35 35 38 44 43 42 42 41 41 39 37 30 31 32 36 39 41 38 39 43 37 41 38 39 40 42 41 40
78 81 82 85 84 83 82 81 75 69 62 54 44 37 33 34 35 40 43 41 42 43 43 41 37 32 28 31 34 36 38 39 38 37 38 33 35 32 35 36 38 38 37
81 85 86 86 84 83 80 74 68 62 54 45 38 33 32 34 35 40 40 39 41 42 41 38 34 28 29 31 35 35 36 34 35 33 33 25 27 25 29 31 34 35 36
84 85 86 83 83 82 73 67 61 54 45 39 35 32 32 33 36 39 38 37 39 38 37 36 30 26 29 31 33 34 34 32 29 27 26 22 20 18 19 23 29 31 33
83 87 81 82 79 73 65 58 54 47 40 36 33 31 31 32 35 37 36 36 37 36 34 32 28 26 28 29 31 33 29 29 26 21 22 16 15 13 10 11 13 21 28
Wind_Direction
300 295 306 322 319 317 306 296 301 302 303 302 300 297 295 294 289 285 282 283 283 281 278 275 275 274 272 268 268 265 266 268 268 265 261 260 260 257 254 256 255 254 254
300 309 311 322 315 310 299 298 299 300 298 295 294 292 289 287 286 284 284 283 282 281 280 277 273 274 272 267 265 268 267 264 264 264 262 260 258 258 257 254 252 251 251
321 319 302 301 303 304 299 299 297 293 290 296 296 291 288 289 287 287 285 285 283 280 278 275 273 268 270 270 271 269 269 269 266 263 262 261 259 257 255 258 259 256 253
313 314 311 304 302 303 302 297 295 297 296 297 293 288 286 284 284 284 283 283 281 280 277 275 272 268 267 267 268 269 270 268 267 266 263 262 260 257 255 253 255 258 257
310 313 313 310 309 307 303 301 298 298 295 294 291 288 286 286 288 287 285 284 284 282 280 275 272 270 268 267 267 266 266 266 266 265 263 262 260 259 257 256 254 254 256
308 313 310 308 307 307 305 302 300 297 298 298 297 297 296 294 291 290 290 289 285 283 283 283 282 279 277 273 270 267 267 266 265 265 262 260 260 259 258 257 257 255 253
319 315 317 316 311 305 304 305 305 306 304 301 300 298 296 293 291 288 289 288 286 285 284 281 279 277 275 273 273 271 267 266 267 266 265 263 259 258 258 259 257 256 255
318 318 317 315 314 313 312 312 310 305 302 301 300 299 296 293 293 294 293 292 291 290 288 287 285 283 280 277 274 272 269 266 262 262 262 262 261 259 256 256 257 256 255
316 315 314 314 312 313 311 308 305 303 301 301 301 300 297 297 295 295 296 295 295 293 292 290 289 287 284 281 278 275 271 268 265 263 261 260 259 259 257 255 254 254 255
313 312 311 311 311 308 305 303 303 304 304 304 303 303 304 302 299 296 297 297 296 295 294 293 290 289 286 282 279 276 273 270 266 261 259 258 257 256 254 253 253 252 251
311 310 308 307 305 303 303 304 305 306 305 305 304 303 304 304 304 303 302 300 299 298 297 295 292 289 286 282 278 276 274 271 266 263 259 256 254 252 252 251 250 249 250
310 310 311 311 310 310 310 310 310 310 309 307 308 308 308 308 307 305 304 302 301 300 296 294 291 288 284 281 279 276 273 270 268 265 261 257 253 249 248 248 247 246 246
311 310 311 310 310 310 310 309 308 308 310 310 310 310 309 308 308 306 306 304 302 300 298 296 293 289 286 283 281 277 275 274 271 269 268 264 259 254 251 246 245 244 243
309 309 309 309 307 307 308 308 309 311 312 312 311 312 311 309 308 308 305 304 302 300 297 296 293 292 290 287 286 285 283 279 274 270 268 267 265 261 255 251 246 245 242
308 308 308 308 308 308 308 310 311 312 312 312 312 311 311 311 308 307 305 303 299 297 295 293 295 294 290 287 286 284 282 280 280 277 273 268 265 264 261 256 252 246 245
308 307 307 308 308 309 311 312 312 313 312 313 312 312 312 309 308 306 303 298 297 297 297 297 299 296 292 288 285 283 282 280 278 276 275 272 268 264 263 260 255 250 245
307 308 308 309 310 311 312 312 312 312 313 314 314 313 311 309 307 304 300 296 294 295 297 298 300 297 292 289 287 285 283 281 279 277 274 271 268 265 263 260 257 252 249
308 309 310 311 312 312 312 312 314 314 315 316 314 312 310 308 306 302 299 297 297 299 301 301 301 299 294 292 290 286 285 283 281 280 277 274 271 267 262 259 256 253 248
309 309 311 312 312 314 314 314 316 316 317 315 314 312 310 308 303 300 299 299 302 303 303 304 304 302 298 294 290 289 288 288 287 284 281 277 273 267 262 259 254 249 246
308 309 311 313 312 314 314 317 316 316 317 315 313 312 309 304 300 301 301 304 306 305 306 306 306 303 298 294 292 291 291 292 292 290 287 281 275 268 262 257 254 248 242
308 310 312 310 312 315 317 318 317 317 317 315 312 310 305 301 301 303 305 310 308 308 309 310 309 304 301 295 295 297 300 297 296 294 288 283 276 270 262 255 252 248 240
307 310 309 310 315 317 319 319 319 318 315 313 311 308 301 301 303 305 309 310 310 311 311 311 308 306 300 301 303 306 305 303 300 295 290 286 277 272 261 253 249 246 243
307 307 309 313 319 318 319 319 318 316 313 311 309 304 300 302 305 309 313 314 316 317 316 315 314 309 306 307 308 309 307 304 305 300 295 292 279 273 259 251 247 243 239
308 308 315 318 318 319 319 317 316 313 312 310 306 300 300 301 305 311 314 315 318 319 318 317 314 307 311 311 313 314 310 312 309 305 299 297 282 277 262 252 244 241 235
308 315 317 317 318 319 318 316 313 312 311 307 302 299 301 302 307 313 314 318 322 321 319 317 313 309 312 314 316 317 315 318 314 306 299 302 291 281 270 253 244 239 233
313 317 317 317 318 318 317 313 311 312 310 306 301 300 301 302 309 312 314 318 323 324 322 318 312 310 314 319 320 321 320 322 319 309 307 310 293 284 268 252 240 235 232
Height
5800 5799 5799 5797 5795 5792 5790 5788 5786 5782 5778 5775 5773 5769 5768 5764 5761 5758 5755 5754 5753 5752 5753 5751 5750 5750 5749 5749 5748 5748 5748 5748 5748 5749 5750 5751 5751 5751 5752 5754 5756 5758 5761
5797 5792 5791 5789 5786 5784 5781 5780 5777 5774 5770 5766 5761 5759 5757 5754 5752 5748 5746 5743 5743 5743 5744 5743 5742 5741 5740 5740 5740 5739 5739 5739 5738 5739 5740 5741 5743 5744 5744 5745 5748 5750 5753
5788 5787 5786 5783 5778 5776 5773 5770 5767 5764 5760 5756 5753 5750 5747 5745 5743 5740 5738 5735 5732 5734 5734 5733 5734 5733 5730 5730 5730 5730 5729 5728 5728 5728 5729 5731 5732 5733 5736 5737 5737 5740 5744
5782 5779 5776 5774 5771 5767 5764 5761 5757 5753 5750 5747 5744 5742 5740 5737 5735 5731 5729 5726 5722 5721 5722 5723 5720 5722 5718 5718 5718 5718 5716 5716 5716 5716 5717 5718 5718 5720 5723 5725 5727 5728 5732
5774 5770 5767 5764 5760 5757 5754 5751 5748 5744 5741 5738 5735 5733 5730 5727 5723 5720 5717 5714 5711 5710 5708 5706 5706 5705 5705 5704 5703 5702 5700 5700 5701 5701 5702 5703 5704 5705 5708 5711 5714 5717 5719
5766 5762 5761 5756 5751 5748 5745 5742 5739 5735 5730 5727 5724 5720 5717 5714 5710 5705 5701 5699 5696 5693 5690 5687 5686 5685 5685 5683 5682 5684 5683 5682 5682 5682 5684 5686 5688 5689 5691 5694 5698 5702 5706
5757 5754 5749 5745 5743 5739 5734 5730 5726 5720 5716 5712 5708 5705 5702 5698 5695 5689 5686 5682 5677 5674 5671 5668 5667 5663 5660 5661 5659 5658 5663 5663 5661 5660 5661 5663 5666 5670 5671 5675 5679 5683 5688
5750 5745 5741 5735 5730 5725 5720 5715 5711 5707 5704 5698 5693 5690 5687 5686 5680 5674 5669 5664 5658 5651 5645 5643 5640 5638 5635 5632 5632 5631 5632 5633 5635 5635 5636 5637 5640 5645 5649 5653 5657 5662 5667
5741 5736 5731 5725 5720 5714 5709 5704 5700 5696 5690 5686 5680 5674 5670 5666 5662 5658 5651 5644 5636 5629 5621 5617 5611 5607 5603 5599 5597 5594 5596 5599 5600 5605 5609 5609 5611 5614 5620 5627 5633 5638 5643
5732 5727 5721 5716 5710 5705 5699 5694 5687 5681 5674 5668 5663 5656 5649 5643 5639 5639 5631 5622 5616 5602 5593 5584 5578 5572 5566 5559 5555 5554 5556 5558 5563 5568 5569 5573 5576 5582 5588 5596 5604 5612 5619
5722 5718 5713 5708 5701 5694 5687 5679 5672 5666 5657 5651 5645 5637 5629 5621 5612 5604 5603 5593 5585 5572 5563 5550 5542 5536 5530 5525 5521 5516 5516 5520 5523 5524 5528 5535 5540 5545 5552 5562 5571 5581 5591
5711 5704 5697 5690 5683 5675 5668 5660 5653 5648 5638 5630 5622 5613 5603 5594 5584 5572 5564 5559 5553 5546 5532 5523 5517 5510 5504 5499 5496 5493 5490 5491 5492 5492 5493 5498 5500 5505 5516 5523 5533 5545 5558
5699 5691 5685 5677 5670 5662 5655 5647 5639 5632 5623 5613 5603 5593 5582 5570 5559 5547 5535 5528 5521 5517 5508 5502 5496 5490 5485 5481 5477 5475 5474 5472 5472 5471 5470 5470 5472 5475 5480 5489 5497 5509 5522
5689 5680 5673 5666 5659 5651 5642 5634 5625 5616 5606 5594 5583 5572 5559 5548 5537 5524 5511 5501 5497 5494 5490 5485 5481 5474 5470 5465 5462 5457 5454 5456 5455 5454 5454 5454 5451 5451 5456 5460 5469 5477 5486
5676 5668 5661 5653 5645 5637 5629 5620 5610 5599 5588 5576 5564 5553 5540 5525 5512 5503 5492 5483 5475 5475 5478 5474 5469 5462 5457 5451 5447 5442 5441 5439 5438 5437 5436 5437 5436 5435 5437 5441 5445 5452 5457
5664 5657 5649 5641 5632 5623 5613 5604 5593 5583 5570 5558 5545 5533 5519 5506 5494 5485 5477 5470 5465 5459 5458 5456 5455 5448 5441 5436 5432 5428 5427 5424 5424 5422 5420 5419 5419 5419 5421 5424 5427 5430 5435
5652 5643 5635 5626 5617 5607 5597 5587 5576 5564 5552 5540 5526 5513 5500 5487 5477 5470 5464 5459 5456 5450 5445 5444 5439 5435 5426 5421 5418 5413 5411 5409 5407 5406 5405 5402 5402 5403 5404 5406 5409 5413 5418
5637 5628 5620 5611 5601 5591 5580 5568 5558 5545 5533 5520 5506 5493 5482 5472 5463 5458 5454 5450 5445 5440 5432 5427 5425 5420 5413 5407 5404 5398 5396 5394 5393 5391 5389 5387 5385 5386 5387 5389 5393 5397 5400
5623 5614 5605 5596 5586 5576 5562 5550 5539 5526 5514 5500 5487 5475 5466 5458 5453 5448 5444 5439 5434 5428 5420 5413 5410 5405 5399 5394 5390 5386 5383 5381 5378 5376 5374 5372 5370 5369 5369 5371 5375 5379 5384
5608 5599 5590 5580 5569 5560 5548 5534 5520 5509 5497 5482 5470 5460 5452 5447 5443 5439 5434 5429 5423 5415 5409 5403 5397 5392 5387 5382 5377 5375 5373 5369 5365 5362 5358 5355 5353 5353 5353 5355 5358 5361 5368
5594 5584 5574 5562 5550 5539 5530 5518 5505 5490 5476 5467 5457 5448 5441 5437 5434 5430 5425 5419 5412 5405 5398 5391 5385 5380 5375 5371 5367 5364 5361 5356 5353 5347 5342 5340 5337 5337 5338 5339 5343 5347 5352
5579 5569 5558 5545 5534 5520 5510 5498 5484 5472 5461 5452 5444 5437 5432 5428 5426 5422 5416 5409 5402 5395 5389 5382 5375 5370 5365 5361 5358 5353 5348 5342 5340 5333 5324 5327 5321 5322 5322 5324 5327 5334 5339
5563 5552 5541 5528 5516 5504 5491 5478 5466 5456 5448 5439 5432 5428 5424 5420 5417 5412 5406 5399 5392 5384 5377 5371 5366 5360 5357 5353 5349 5344 5337 5331 5326 5320 5313 5312 5307 5308 5308 5312 5314 5321 5328
5545 5533 5523 5509 5499 5489 5475 5462 5451 5443 5435 5428 5423 5419 5416 5412 5409 5404 5398 5392 5385 5377 5370 5363 5357 5353 5350 5346 5340 5335 5328 5323 5315 5309 5302 5302 5297 5298 5298 5301 5305 5309 5316
5527 5516 5504 5494 5481 5471 5459 5448 5440 5433 5424 5418 5414 5411 5408 5404 5400 5395 5390 5384 5378 5371 5363 5356 5351 5347 5344 5339 5333 5327 5319 5314 5308 5301 5295 5293 5291 5290 5290 5292 5295 5300 5306
5511 5500 5487 5475 5465 5454 5446 5436 5428 5421 5414 5410 5405 5403 5401 5397 5393 5387 5383 5377 5372 5364 5357 5350 5345 5341 5338 5333 5327 5320 5314 5307 5301 5295 5290 5289 5286 5286 5286 5287 5290 5293 5298